San Antonio, TX

9:12 AM CDT on May 26, 2017 (GMT -0500)
San Antonio International

Weather History for KSAT - October, 2012

Change the Weather History Date:

Sunday, October 14, 2012

  Actual Average Record
Temperature  
Mean Temperature 79 °F 72 °F  
Max Temperature 89 °F 83 °F 95 °F (2015)
Min Temperature 68 °F 61 °F 39 °F (1977)
Degree Days  
Heating Degree Days 0 1  
Month to date heating degree days 15 3  
Since 1 July heating degree days 15 5  
Cooling Degree Days 14 7  
Month to date cooling degree days 128 123  
Year to date cooling degree days 3368 2957  
Growing Degree Days 28 (Base 50)    
Moisture  
Dew Point 67 °F    
Average Humidity 68    
Maximum Humidity 87    
Minimum Humidity 49    
Precipitation  
Precipitation 0.26 in 0.14 in 1.19 in (1920)
Month to date precipitation 1.00 1.84  
Year to date precipitation 37.36 25.81  
Snow  
Snow 0.00 in - - ()
Month to date snowfall 0.0  
Since 1 July snowfall 0.0  
Since 1 September snowfall 0.0  
Snow Depth 0.00 in    
Sea Level Pressure  
Sea Level Pressure 29.99 in    
Wind  
Wind Speed 5 mph (NNE)    
Max Wind Speed 22 mph    
Max Gust Speed 28 mph    
Visibility 9 miles    
Events Rain    
T = Trace of Precipitation, MM = Missing Value Source: NWS Daily Summary

Daily Weather History Graph

Daily Weather History Graph

Search for Another Location

Airport or City:

Trip Planner

Search our weather history database for the weather conditions in past years. The results will help you decide how hot, cold, wet, or windy it might be!

Date:

Astronomy

Oct. 14, 2012 Rise Set
Actual Time 7:35 AM CDT 7:03 PM CDT
Civil Twilight 7:11 AM CDT 7:27 PM CDT
Nautical Twilight 6:43 AM CDT 7:55 PM CDT
Astronomical Twilight 6:15 AM CDT 8:23 PM CDT
Moon 6:37 AM CDT (10/14) 6:26 PM CDT (10/14)
Length of Visible Light 12h 16m
Length of Day
11h 28m
Waning Crescent, 1% of the Moon is Illuminated
Oct 14
Waning Crescent
Oct 15
New
Oct 21
First Quarter
Oct 29
Full
Nov 6
Last Quarter

Hourly Weather History & Observations

Time (CDT) Temp. Heat Index Dew Point Humidity Pressure Visibility Wind Dir Wind Speed Gust Speed Precip Events Conditions
12:53 AM 75.9 °F - 72.0 °F 87% 29.93 in 10.0 mi South 12.7 mph - N/A   Mostly Cloudy
1:53 AM 75.9 °F - 72.0 °F 87% 29.92 in 10.0 mi South 9.2 mph - N/A   Mostly Cloudy
2:53 AM 75.0 °F - 72.0 °F 90% 29.91 in 10.0 mi South 11.5 mph 17.3 mph N/A   Mostly Cloudy
3:45 AM 75.2 °F - 71.6 °F 89% 29.96 in 10.0 mi South 9.2 mph - N/A   Mostly Cloudy
3:53 AM 75.0 °F - 72.0 °F 90% 29.91 in 10.0 mi South 9.2 mph - N/A   Mostly Cloudy
4:53 AM 75.0 °F - 72.0 °F 90% 29.92 in 10.0 mi South 4.6 mph - N/A   Overcast
5:53 AM 75.0 °F - 72.0 °F 90% 29.94 in 10.0 mi South 3.5 mph - N/A   Overcast
6:53 AM 75.0 °F - 72.0 °F 90% 29.96 in 10.0 mi Calm Calm - N/A   Overcast
7:53 AM 70.0 °F - 68.0 °F 93% 30.03 in 2.0 mi North 18.4 mph 27.6 mph 0.01 in Rain Heavy Rain
7:57 AM 68.0 °F - 68.0 °F 100% 30.08 in 1.5 mi North 9.2 mph 27.6 mph 0.15 in Rain Heavy Rain
8:11 AM 68.0 °F - 68.0 °F 100% 30.07 in 4.0 mi ESE 3.5 mph - 0.25 in Rain Light Rain
8:21 AM 69.8 °F - 69.8 °F 100% 30.07 in 8.0 mi Calm Calm - 0.25 in Rain Light Rain
8:53 AM 70.0 °F - 69.1 °F 97% 30.01 in 10.0 mi Calm Calm - 0.25 in   Mostly Cloudy
9:53 AM 73.0 °F - 69.1 °F 87% 30.03 in 10.0 mi Calm Calm - N/A   Scattered Clouds
10:53 AM 78.1 °F - 71.1 °F 79% 30.03 in 10.0 mi Calm Calm - N/A   Scattered Clouds
11:53 AM 80.1 °F 82.9 °F 69.1 °F 69% 30.03 in 10.0 mi Calm Calm - N/A   Mostly Cloudy
12:53 PM 82.9 °F 87.0 °F 70.0 °F 65% 30.02 in 10.0 mi Calm Calm - N/A   Mostly Cloudy
1:53 PM 84.9 °F 88.8 °F 69.1 °F 59% 29.99 in 10.0 mi Variable 3.5 mph - N/A   Scattered Clouds
2:53 PM 86.0 °F 88.2 °F 66.2 °F 51% 30.02 in 10.0 mi NW 3.5 mph - N/A   Scattered Clouds
3:53 PM 84.9 °F 87.6 °F 66.9 °F 55% 29.96 in 10.0 mi North 4.6 mph - N/A   Scattered Clouds
4:53 PM 87.1 °F 89.2 °F 66.0 °F 49% 29.96 in 10.0 mi NNE 10.4 mph - N/A   Scattered Clouds
5:53 PM 84.0 °F 85.8 °F 64.9 °F 53% 29.96 in 10.0 mi North 12.7 mph - N/A   Partly Cloudy
6:53 PM 80.1 °F 80.7 °F 59.0 °F 48% 29.97 in 10.0 mi North 6.9 mph - N/A   Partly Cloudy
7:53 PM 75.9 °F - 60.1 °F 58% 29.99 in 10.0 mi North 5.8 mph - N/A   Partly Cloudy
8:53 PM 73.0 °F - 59.0 °F 61% 30.00 in 10.0 mi NNW 4.6 mph - N/A   Partly Cloudy
9:53 PM 72.0 °F - 60.1 °F 66% 30.02 in 10.0 mi NW 4.6 mph - N/A   Scattered Clouds
10:53 PM 70.0 °F - 61.0 °F 73% 30.04 in 10.0 mi Calm Calm - N/A   Scattered Clouds
11:53 PM 72.0 °F - 55.0 °F 55% 30.05 in 10.0 mi NE 3.5 mph - N/A   Partly Cloudy